This is the latest recevied weather packets stored in our database for station/object W4BOD. If no packets are shown the sender has not sent any weather packets the latest 10 day(s).
| Time | Temp. | Humidity | Pressure | Rain* | Wind** | Luminosity | Snow |
|---|---|---|---|---|---|---|---|
| 1777879758 | 11.67° C | 80% | 1014.6 hPa | 0 mm | - | 0 W/m² | - |
| 1777879455 | 11.67° C | 80% | 1014.6 hPa | 0 mm | - | 0 W/m² | - |
| 1777879152 | 11.67° C | 80% | 1014.7 hPa | 0 mm | - | 0 W/m² | - |
| 1777878849 | 11.67° C | 78% | 1014.7 hPa | 0 mm | - | 0 W/m² | - |
| 1777878546 | 12.22° C | 77% | 1014.6 hPa | 0 mm | - | 0 W/m² | - |
| 1777878243 | 12.78° C | 74% | 1014.7 hPa | 0 mm | - | 0 W/m² | - |
| 1777877938 | 12.78° C | 74% | 1014.5 hPa | 0 mm | - | 0 W/m² | - |
| 1777877635 | 12.78° C | 73% | 1014.8 hPa | 0 mm | - | 0 W/m² | - |
| 1777877332 | 13.33° C | 73% | 1014.7 hPa | 0 mm | - | 0 W/m² | - |
| 1777877029 | 12.78° C | 73% | 1014.9 hPa | 0 mm | - | 0 W/m² | - |
| 1777876727 | 12.78° C | 75% | 1014.5 hPa | 0 mm | - | 0 W/m² | - |
| 1777876424 | 12.78° C | 75% | 1014.6 hPa | 0 mm | - | 0 W/m² | - |
| 1777876120 | 12.78° C | 75% | 1014.8 hPa | 0 mm | - | 0 W/m² | - |
| 1777875817 | 12.78° C | 75% | 1014.7 hPa | 0 mm | - | 0 W/m² | - |
| 1777875513 | 12.78° C | 75% | 1014.8 hPa | 0 mm | - | 0 W/m² | - |
| 1777875209 | 12.78° C | 75% | 1014.9 hPa | 0 mm | - | 0 W/m² | - |
| 1777874907 | 13.33° C | 74% | 1015.2 hPa | 0 mm | - | 0 W/m² | - |
| 1777874602 | 13.33° C | 73% | 1015.1 hPa | 0 mm | - | 0 W/m² | - |
| 1777874300 | 13.33° C | 73% | 1015.1 hPa | 0 mm | - | 0 W/m² | - |
| 1777873998 | 13.33° C | 72% | 1015.3 hPa | 0 mm | - | 0 W/m² | - |
| 1777873694 | 13.33° C | 72% | 1015.4 hPa | 0 mm | - | 0 W/m² | - |
| 1777873392 | 13.33° C | 72% | 1015.2 hPa | 0 mm | - | 0 W/m² | - |
| 1777873088 | 13.89° C | 68% | 1015.3 hPa | 0 mm | - | 0 W/m² | - |
| 1777872785 | 13.89° C | 65% | 1015.3 hPa | 0 mm | - | 0 W/m² | - |
| 1777872482 | 13.89° C | 64% | 1015.5 hPa | 0 mm | - | 0 W/m² | - |
* Rain latest hour (hover to see other rain measurements)
** Current wind speed in m/s (hover to see current wind gust speed)